Caro, MI

10:41 PM EDT on April 30, 2017 (GMT -0400)
Caro

Weather History for KCFS - March, 2013

Change the Weather History Date:

Saturday, March 2, 2013

  Actual Average (KMBS) Record (KMBS)
Temperature  
Mean Temperature 22 °F -  
Max Temperature 26 °F 32 °F 44 °F (1997)
Min Temperature 18 °F 19 °F -2 °F (2003)
Degree Days  
Heating Degree Days 44    
Moisture  
Dew Point 18 °F    
Average Humidity 81    
Maximum Humidity 87    
Minimum Humidity 72    
Precipitation  
Precipitation 0.00 in - - ()
Sea Level Pressure  
Sea Level Pressure 30.06 in    
Wind  
Wind Speed 10 mph (NNW)    
Max Wind Speed 14 mph    
Max Gust Speed 18 mph    
Visibility 8 miles    
Events Snow    
Averages and records for this station are not official NWS values.
T = Trace of Precipitation, MM = Missing Value Source: NWS Daily Summary

Daily Weather History Graph

Daily Weather History Graph

Search for Another Location

Airport or City:

Trip Planner

Search our weather history database for the weather conditions in past years. The results will help you decide how hot, cold, wet, or windy it might be!

Date:

Astronomy

Mar. 02, 2013 Rise Set
Actual Time 7:08 AM EST 6:24 PM EST
Civil Twilight 6:39 AM EST 6:52 PM EST
Nautical Twilight 6:06 AM EST 7:26 PM EST
Astronomical Twilight 5:33 AM EST 7:59 PM EST
Moon No Moon Rise 9:25 AM EST (3/2)
Length of Visible Light 12h 13m
Length of Day
11h 16m
Waning Gibbous, 74% of the Moon is Illuminated
Mar 2
Waning Gibbous
Mar 4
Last Quarter
Mar 11
New
Mar 19
First Quarter
Mar 27
Full

Hourly Weather History & Observations

Time (EST) Temp. Windchill Dew Point Humidity Pressure Visibility Wind Dir Wind Speed Gust Speed Precip Events Conditions
12:14 AM 23.9 °F 13.5 °F 18.1 °F 79% 30.07 in 10.0 mi NNW 10.4 mph - N/A   Overcast
12:35 AM 23.9 °F 13.5 °F 18.3 °F 79% 30.07 in 10.0 mi NNW 10.4 mph - N/A   Overcast
12:54 AM 23.9 °F 13.5 °F 18.3 °F 79% 30.07 in 10.0 mi NNW 10.4 mph - N/A   Overcast
1:14 AM 23.9 °F 14.2 °F 18.5 °F 80% 30.07 in 10.0 mi NNW 9.2 mph - N/A   Overcast
1:35 AM 24.3 °F 13.3 °F 19.2 °F 81% 30.07 in 10.0 mi NNW 11.5 mph - N/A   Overcast
1:54 AM 24.3 °F 13.3 °F 19.2 °F 81% 30.07 in 10.0 mi NW 11.5 mph - N/A   Overcast
2:15 AM 24.6 °F 14.4 °F 19.8 °F 82% 30.07 in 10.0 mi NNW 10.4 mph - N/A   Overcast
2:34 AM 24.4 °F 14.2 °F 19.8 °F 82% 30.06 in 10.0 mi NNW 10.4 mph - N/A   Overcast
2:54 AM 24.6 °F 14.4 °F 20.1 °F 83% 30.06 in 10.0 mi NW 10.4 mph - N/A   Overcast
3:14 AM 24.1 °F 13.7 °F 19.4 °F 82% 30.06 in 10.0 mi NW 10.4 mph - N/A   Overcast
3:34 AM 24.4 °F 14.9 °F 20.1 °F 84% 30.05 in 10.0 mi NW 9.2 mph - N/A   Overcast
3:55 AM 25.5 °F 15.5 °F 20.1 °F 80% 30.05 in 10.0 mi NNW 10.4 mph - N/A   Overcast
4:14 AM 24.1 °F 13.1 °F 19.8 °F 84% 30.05 in 10.0 mi NW 11.5 mph - N/A   Overcast
4:34 AM 24.3 °F 14.6 °F 20.1 °F 84% 30.05 in 10.0 mi NNW 9.2 mph - N/A   Overcast
4:54 AM 23.9 °F 11.7 °F 19.8 °F 84% 30.05 in 10.0 mi NNW 13.8 mph - N/A   Overcast
5:14 AM 23.9 °F 14.2 °F 19.9 °F 85% 30.06 in 10.0 mi NNW 9.2 mph - N/A   Overcast
5:35 AM 23.9 °F 14.2 °F 19.9 °F 85% 30.06 in 10.0 mi NNW 9.2 mph - N/A   Overcast
5:54 AM 23.2 °F 12.6 °F 19.2 °F 85% 30.06 in 10.0 mi NW 10.4 mph - N/A   Overcast
6:14 AM 23.0 °F 11.7 °F 19.2 °F 85% 30.06 in 10.0 mi NW 11.5 mph - N/A   Overcast
6:35 AM 23.5 °F 11.8 °F 19.4 °F 84% 30.06 in 10.0 mi NW 12.7 mph - N/A   Overcast
6:54 AM 23.5 °F 11.3 °F 19.6 °F 85% 30.06 in 10.0 mi NW 13.8 mph 18.4 mph N/A   Overcast
7:14 AM 23.5 °F 11.8 °F 19.8 °F 85% 30.06 in 10.0 mi NW 12.7 mph 17.3 mph N/A   Overcast
7:34 AM 23.5 °F 12.4 °F 20.1 °F 87% 30.06 in 7.0 mi NNW 11.5 mph - N/A   Overcast
7:54 AM 23.5 °F 13.0 °F 20.1 °F 87% 30.07 in 7.0 mi NNW 10.4 mph - N/A   Overcast
8:15 AM 23.4 °F 12.8 °F 19.8 °F 86% 30.07 in 10.0 mi NNW 10.4 mph - N/A   Overcast
8:34 AM 23.0 °F 12.4 °F 19.4 °F 86% 30.07 in 7.0 mi NNW 10.4 mph - N/A Snow Light Snow
8:54 AM 23.0 °F 11.7 °F 19.6 °F 87% 30.08 in 3.0 mi NNW 11.5 mph 16.1 mph N/A Snow Light Snow
9:15 AM 23.0 °F 13.1 °F 19.8 °F 87% 30.07 in 2.0 mi NNW 9.2 mph - N/A Snow Light Snow
9:34 AM 23.0 °F 11.1 °F 19.6 °F 87% 30.07 in 2.5 mi NNW 12.7 mph 18.4 mph N/A Snow Light Snow
9:54 AM 23.0 °F 10.6 °F 19.4 °F 86% 30.08 in 4.0 mi NNW 13.8 mph - N/A Snow Light Snow
10:15 AM 23.0 °F 11.7 °F 19.0 °F 85% 30.07 in 3.0 mi NNW 11.5 mph - N/A Snow Light Snow
10:34 AM 22.8 °F 10.9 °F 18.7 °F 84% 30.08 in 5.0 mi NNW 12.7 mph 18.4 mph N/A Snow Light Snow
10:54 AM 22.8 °F 10.9 °F 18.5 °F 83% 30.08 in 4.0 mi NNW 12.7 mph - N/A Snow Light Snow
11:15 AM 23.0 °F 11.1 °F 18.5 °F 83% 30.08 in 5.0 mi NNW 12.7 mph 18.4 mph N/A Snow Light Snow
11:34 AM 23.0 °F 11.1 °F 18.3 °F 82% 30.08 in 4.0 mi NNW 12.7 mph 16.1 mph N/A Snow Light Snow
11:54 AM 23.4 °F 12.2 °F 18.3 °F 81% 30.08 in 5.0 mi NNW 11.5 mph - N/A Snow Light Snow
12:14 PM 23.4 °F 11.6 °F 18.3 °F 81% 30.08 in 7.0 mi NNW 12.7 mph 17.3 mph N/A Snow Light Snow
12:34 PM 23.4 °F 12.8 °F 18.3 °F 81% 30.08 in 7.0 mi NNW 10.4 mph - N/A Snow Light Snow
12:55 PM 23.5 °F 12.4 °F 18.7 °F 82% 30.07 in 10.0 mi NNW 11.5 mph - N/A   Overcast
1:14 PM 23.5 °F 11.8 °F 18.5 °F 81% 30.07 in 10.0 mi NNW 12.7 mph - N/A Snow Light Snow
1:34 PM 23.7 °F 12.6 °F 18.3 °F 80% 30.06 in 7.0 mi NNW 11.5 mph - N/A Snow Light Snow
1:54 PM 23.7 °F 13.3 °F 18.3 °F 80% 30.06 in 7.0 mi NNW 10.4 mph - N/A Snow Light Snow
2:14 PM 24.1 °F 13.7 °F 18.5 °F 79% 30.06 in 7.0 mi North 10.4 mph - N/A Snow Light Snow
2:35 PM 24.3 °F 13.9 °F 18.0 °F 77% 30.06 in 5.0 mi NNW 10.4 mph - N/A Snow Light Snow
3:14 PM 24.4 °F 14.9 °F 18.0 °F 76% 30.06 in 7.0 mi NNW 9.2 mph - N/A Snow Light Snow
3:35 PM 24.4 °F 14.9 °F 18.0 °F 76% 30.06 in 7.0 mi NNW 9.2 mph - N/A Snow Light Snow
3:54 PM 24.4 °F 14.2 °F 18.0 °F 76% 30.06 in 10.0 mi NW 10.4 mph - N/A Snow Light Snow
4:14 PM 24.8 °F 15.3 °F 18.0 °F 75% 30.06 in 10.0 mi NNW 9.2 mph - N/A   Overcast
4:35 PM 24.6 °F 15.1 °F 17.4 °F 74% 30.06 in 10.0 mi NNW 9.2 mph - N/A Snow Light Snow
4:54 PM 24.4 °F 14.9 °F 18.0 °F 76% 30.05 in 7.0 mi NW 9.2 mph - N/A Snow Light Snow
5:14 PM 24.4 °F 13.5 °F 18.3 °F 78% 30.06 in 7.0 mi NNW 11.5 mph - N/A Snow Light Snow
5:35 PM 24.4 °F 16.5 °F 18.1 °F 77% 30.06 in 10.0 mi NW 6.9 mph - N/A Snow Light Snow
5:54 PM 24.4 °F 15.6 °F 17.8 °F 76% 30.07 in 10.0 mi NW 8.1 mph - N/A Snow Light Snow
6:14 PM 24.4 °F 15.6 °F 17.2 °F 74% 30.07 in 10.0 mi NW 8.1 mph - N/A Snow Light Snow
6:35 PM 24.4 °F 16.5 °F 16.5 °F 72% 30.07 in 10.0 mi NW 6.9 mph - N/A   Overcast
6:54 PM 24.4 °F 15.6 °F 16.7 °F 72% 30.07 in 10.0 mi NW 8.1 mph - N/A Snow Light Snow
7:15 PM 24.3 °F 17.3 °F 17.4 °F 75% 30.07 in 10.0 mi NNW 5.8 mph - N/A   Overcast
7:34 PM 23.9 °F 19.5 °F 17.6 °F 77% 30.07 in 10.0 mi North 3.5 mph - N/A   Overcast
7:54 PM 23.5 °F - 18.0 °F 79% 30.06 in 10.0 mi Calm Calm - N/A   Overcast
8:14 PM 22.8 °F 18.2 °F 17.4 °F 80% 30.06 in 10.0 mi NNW 3.5 mph - N/A   Overcast
8:34 PM 21.7 °F 17.0 °F 16.7 °F 81% 30.06 in 10.0 mi NNW 3.5 mph - N/A   Overcast
8:55 PM 20.1 °F 15.2 °F 15.4 °F 82% 30.06 in 10.0 mi NNW 3.5 mph - N/A   Overcast
9:14 PM 19.4 °F 12.8 °F 14.9 °F 83% 30.06 in 10.0 mi NW 4.6 mph - N/A   Mostly Cloudy
9:34 PM 18.5 °F 13.3 °F 13.8 °F 82% 30.06 in 10.0 mi NNW 3.5 mph - N/A   Overcast
9:55 PM 21.4 °F 15.1 °F 16.0 °F 80% 30.06 in 10.0 mi NNW 4.6 mph - N/A   Overcast
10:14 PM 22.1 °F 13.7 °F 16.2 °F 78% 30.06 in 10.0 mi North 6.9 mph - N/A Snow Light Snow
10:34 PM 22.1 °F 14.7 °F 16.3 °F 79% 30.05 in 10.0 mi NNW 5.8 mph - N/A Snow Light Snow
10:55 PM 22.1 °F 12.8 °F 16.7 °F 80% 30.05 in 10.0 mi North 8.1 mph - N/A   Overcast
11:14 PM 21.2 °F 14.9 °F 15.8 °F 80% 30.05 in 10.0 mi NNW 4.6 mph - N/A   Overcast
11:34 PM 22.1 °F 17.4 °F 16.5 °F 79% 30.05 in 10.0 mi NW 3.5 mph - N/A   Overcast
11:55 PM 22.1 °F 15.9 °F 16.7 °F 80% 30.04 in 10.0 mi WNW 4.6 mph - N/A   Overcast